KN4MGS Weather Reports


Display with metric or nautical units.
time (UTC)temp
F
wind
direction
speed
MPH
gust
MPH
rain 1hr
in
rain 24hr
in
rain mn
in
humidity
%
barometer
mb
20260508135405 64 110 1.0 3.0 0.00 0.01 0.01 72 1022.4
20260508134901 64 179 1.0 2.0 0.00 0.01 0.01 66 1022.3
20260508134358 63 147 0.0 2.0 0.00 0.01 0.01 72 1022.2
20260508133854 63 123 1.0 2.0 0.00 0.01 0.01 68 1022.4
20260508133352 64 191 3.0 3.0 0.00 0.01 0.01 75 1022.3
20260508132849 63 164 1.0 2.0 0.00 0.01 0.01 75 1022.4
20260508132347 61 146 0.0 2.0 0.00 0.01 0.01 79 1022.4
20260508131843 60 190 1.0 2.0 0.00 0.01 0.01 84 1022.4
20260508131339 58 146 0.0 1.0 0.00 0.01 0.01 95 1022.1
20260508130836 57 132 0.0 2.0 0.00 0.01 0.01 99 1022.2
20260508130333 57 167 0.0 1.0 0.00 0.01 0.01 99 1022.1
20260508125829 55 147 0.0 3.0 0.00 0.01 0.01 99 1022.0
20260508125325 57 155 0.0 1.0 0.00 0.01 0.01 99 1022.1
20260508124823 57 168 0.0 0.0 0.00 0.01 0.01 99 1021.8
20260508124320 57 169 0.0 0.0 0.00 0.01 0.01 99 1021.9
20260508123818 55 164 0.0 1.0 0.00 0.01 0.01 99 1021.8
20260508123316 56 164 0.0 1.0 0.00 0.01 0.01 99 1021.6
20260508122812 55 163 0.0 1.0 0.00 0.01 0.01 99 1021.5
20260508122309 55 160 0.0 0.0 0.00 0.01 0.01 99 1021.7
20260508121807 54 158 0.0 0.0 0.00 0.01 0.01 99 1021.7
20260508121305 54 155 0.0 0.0 0.00 0.01 0.01 99 1021.6
20260508120802 55 153 0.0 0.0 0.00 0.01 0.01 99 1021.5
20260508120300 55 151 0.0 0.0 0.00 0.01 0.01 99 1021.5
20260508115757 53 153 0.0 0.0 0.00 0.01 0.01 99 1021.6
20260508115254 52 155 0.0 0.0 0.00 0.01 0.01 99 1021.5
20260508114751 53 152 0.0 0.0 0.00 0.01 0.01 99 1021.6
20260508114248 53 153 0.0 0.0 0.00 0.01 0.01 99 1021.4
20260508113744 50 151 0.0 0.0 0.00 0.01 0.01 99 1021.3
20260508113243 48 153 0.0 0.0 0.05 0.01 0.01 99 1021.1
20260508112739 48 156 0.0 0.0 0.05 0.01 0.01 99 1021.2
20260508112236 48 156 0.0 0.0 0.00 0.00 0.00 99 1020.8
20260508111732 48 146 0.0 0.0 0.00 0.00 0.00 99 1020.8
20260508111230 48 148 0.0 0.0 0.00 0.00 0.00 99 1020.7
20260508110726 48 151 0.0 0.0 0.00 0.00 0.00 99 1020.9
20260508110223 47 137 0.0 0.0 0.00 0.00 0.00 99 1020.4
20260508105718 47 120 0.0 1.0 0.00 0.00 0.00 99 1020.6
20260508105215 47 151 0.0 0.0 0.00 0.00 0.00 99 1020.8
20260508104713 47 139 0.0 0.0 0.00 0.00 0.00 99 1020.5
20260508104209 48 135 0.0 0.0 0.00 0.00 0.00 99 1020.3
20260508103707 48 150 0.0 0.0 0.00 0.00 0.00 99 1020.2
20260508103204 48 158 0.0 0.0 0.00 0.00 0.00 99 1020.1
20260508102701 48 154 0.0 0.0 0.00 0.00 0.00 99 1020.0
20260508102159 49 159 0.0 0.0 0.00 0.00 0.00 99 1019.9
20260508101656 48 158 0.0 0.0 0.00 0.00 0.00 99 1019.9
20260508101154 48 155 0.0 0.0 0.00 0.00 0.00 99 1019.7
20260508100651 48 152 0.0 0.0 0.00 0.00 0.00 99 1019.6
20260508100149 48 151 0.0 0.0 0.00 0.00 0.00 99 1019.6
20260508095645 48 147 0.0 0.0 0.00 0.00 0.00 99 1019.7
20260508095142 49 158 0.0 0.0 0.00 0.00 0.00 99 1019.6
20260508094639 49 159 0.0 0.0 0.00 0.00 0.00 99 1019.7
20260508094135 50 158 0.0 0.0 0.00 0.00 0.00 99 1019.4
20260508093633 49 156 0.0 0.0 0.00 0.00 0.00 99 1019.6
20260508093130 50 153 0.0 0.0 0.00 0.00 0.00 99 1019.2
20260508092628 50 152 0.0 0.0 0.00 0.00 0.00 99 1019.5
20260508092126 50 140 0.0 0.0 0.00 0.00 0.00 99 1019.3
20260508091623 50 163 0.0 0.0 0.00 0.00 0.00 99 1019.3
20260508091120 50 161 0.0 0.0 0.00 0.00 0.00 99 1019.2
20260508090618 50 161 0.0 0.0 0.00 0.00 0.00 99 1019.2
20260508090115 50 153 0.0 0.0 0.00 0.00 0.00 99 1019.2
20260508085611 50 157 0.0 0.0 0.00 0.00 0.00 99 1019.2
20260508085108 50 162 0.0 0.0 0.00 0.00 0.00 99 1019.0
20260508084605 50 168 0.0 0.0 0.00 0.00 0.00 99 1019.1
20260508084102 50 149 0.0 0.0 0.00 0.00 0.00 99 1018.9
20260508083559 50 141 0.0 0.0 0.00 0.00 0.00 99 1019.0
20260508083056 50 145 0.0 0.0 0.00 0.00 0.00 99 1019.1
20260508082552 51 144 0.0 0.0 0.00 0.00 0.00 99 1018.7
20260508082049 50 150 0.0 0.0 0.00 0.00 0.00 99 1019.0
20260508081547 50 146 0.0 0.0 0.00 0.00 0.00 99 1018.9
20260508081042 51 149 0.0 0.0 0.00 0.00 0.00 99 1018.8
20260508080541 51 151 0.0 0.0 0.00 0.00 0.00 99 1018.9
20260508080038 51 152 0.0 0.0 0.00 0.00 0.00 99 1018.8
20260508075534 51 141 0.0 1.0 0.00 0.00 0.00 99 1018.7
20260508075032 51 131 0.0 0.0 0.00 0.00 0.00 99 1018.6
20260508074529 51 144 0.0 0.0 0.00 0.00 0.00 99 1018.4
20260508074026 51 144 0.0 0.0 0.00 0.00 0.00 99 1018.5
20260508073523 51 140 0.0 0.0 0.00 0.00 0.00 99 1018.8
20260508073021 51 138 0.0 0.0 0.00 0.00 0.00 99 1018.5
20260508072516 51 128 0.0 0.0 0.00 0.00 0.00 99 1018.7
20260508072014 51 145 0.0 0.0 0.00 0.00 0.00 99 1018.5
20260508071512 51 125 0.0 0.0 0.00 0.00 0.00 99 1018.5
20260508071009 52 139 0.0 1.0 0.00 0.00 0.00 99 1018.3
20260508070506 52 153 0.0 1.0 0.00 0.00 0.00 99 1018.4
20260508070005 52 144 0.0 0.0 0.00 0.00 0.00 99 1018.3
20260508065502 52 157 0.0 0.0 0.00 0.00 0.00 99 1018.3
20260508065000 52 157 0.0 0.0 0.00 0.00 0.00 99 1018.4
20260508064457 52 153 0.0 0.0 0.00 0.00 0.00 99 1018.4
20260508063955 53 155 0.0 0.0 0.00 0.00 0.00 99 1018.3
20260508063452 53 153 0.0 0.0 0.00 0.00 0.00 99 1018.2
20260508062950 53 159 0.0 0.0 0.00 0.00 0.00 99 1018.3
20260508062447 53 158 0.0 0.0 0.00 0.00 0.00 99 1018.4
20260508061944 53 152 0.0 0.0 0.00 0.00 0.00 99 1018.2
20260508061442 53 149 0.0 0.0 0.00 0.00 0.00 99 1018.3
20260508060938 53 159 0.0 0.0 0.00 0.00 0.00 99 1018.4
20260508060436 53 156 0.0 0.0 0.00 0.00 0.00 99 1018.5
20260508055931 53 155 0.0 0.0 0.00 0.00 0.00 99 1018.3
20260508055428 53 144 0.0 0.0 0.00 0.00 0.00 99 1018.5
20260508054924 53 159 0.0 0.0 0.00 0.00 0.00 99 1018.4
20260508054422 53 160 0.0 0.0 0.00 0.00 0.00 99 1018.4
20260508053919 53 160 0.0 0.0 0.00 0.00 0.00 99 1018.5
20260508053416 53 152 0.0 0.0 0.00 0.00 0.00 99 1018.3
20260508052914 53 151 0.0 0.0 0.00 0.00 0.00 99 1018.2
20260508052411 53 169 0.0 0.0 0.00 0.00 0.00 99 1018.3
20260508051907 53 154 0.0 0.0 0.00 0.00 0.00 99 1018.2
20260508051403 54 155 0.0 0.0 0.00 0.00 0.00 99 1018.7
20260508050859 54 158 0.0 0.0 0.00 0.00 0.00 99 1018.3
20260508050356 54 149 0.0 0.0 0.00 0.00 0.00 99 1017.9
20260508045852 54 156 0.0 0.0 0.00 0.00 0.00 99 1017.9
20260508045350 54 160 0.0 0.0 0.00 0.00 0.00 99 1017.7
20260508044847 54 162 0.0 0.0 0.00 0.00 0.00 99 1018.2
20260508044343 54 162 0.0 0.0 0.00 0.00 0.00 99 1018.2
20260508043839 55 159 0.0 0.0 0.00 0.00 0.00 99 1017.9
20260508043337 54 157 0.0 0.0 0.00 0.00 0.00 99 1017.9
20260508042833 55 146 0.0 0.0 0.00 0.00 0.00 99 1018.0
20260508042331 55 162 0.0 0.0 0.00 0.00 0.00 99 1018.0
20260508041828 55 162 0.0 0.0 0.00 0.00 0.00 99 1017.6
20260508041324 55 162 0.0 0.0 0.00 0.00 0.00 99 1017.7
20260508040821 55 160 0.0 0.0 0.00 0.00 0.00 99 1017.8
20260508040318 55 151 0.0 0.0 0.00 0.00 0.00 99 1017.8
20260508035815 55 157 0.0 0.0 0.00 1.25 1.25 99 1017.8
20260508035313 55 153 0.0 0.0 0.00 1.25 1.25 99 1017.9
20260508034809 55 166 0.0 0.0 0.00 1.25 1.25 99 1017.9
20260508034307 55 155 0.0 0.0 0.00 1.25 1.25 99 1017.6
20260508033803 56 141 0.0 0.0 0.00 1.25 1.25 99 1017.6
20260508033302 56 162 0.0 0.0 0.00 1.25 1.25 99 1017.6
20260508032759 56 161 0.0 0.0 0.00 1.25 1.25 99 1017.5
20260508032256 56 160 0.0 0.0 0.00 1.25 1.25 99 1017.6
20260508031753 56 164 0.0 0.0 0.00 1.25 1.25 99 1017.6
20260508031249 57 162 0.0 0.0 0.00 1.25 1.25 99 1017.7
20260508030746 57 159 0.0 0.0 0.00 1.25 1.25 99 1017.6
20260508030243 57 158 0.0 0.0 0.00 1.25 1.25 99 1017.6
20260508025739 57 165 0.0 0.0 0.00 1.25 1.25 99 1017.6
20260508025236 57 164 0.0 0.0 0.00 1.25 1.25 99 1017.4
20260508024732 57 176 1.0 1.0 0.00 1.25 1.25 99 1017.4
20260508024230 57 165 0.0 0.0 0.00 1.25 1.25 99 1017.3
20260508023726 57 164 0.0 0.0 0.00 1.25 1.25 99 1017.2
20260508023224 57 161 0.0 0.0 0.00 1.25 1.25 99 1017.4
20260508022719 57 160 0.0 0.0 0.00 1.25 1.25 99 1017.1
20260508022216 57 154 0.0 0.0 0.00 1.25 1.25 99 1017.2
20260508021713 57 154 0.0 0.0 0.00 1.25 1.25 99 1017.3
20260508021208 57 153 0.0 0.0 0.00 1.25 1.25 99 1017.0
20260508020706 57 164 0.0 1.0 0.00 1.25 1.25 99 1016.9
20260508020203 57 119 0.0 1.0 0.00 1.25 1.25 99 1016.9
20260508015701 58 120 0.0 0.0 0.00 1.25 1.25 99 1016.9
20260508015157 58 144 0.0 1.0 0.00 1.25 1.25 99 1016.9
20260508014654 58 71 1.0 2.0 0.00 1.25 1.25 99 1016.5
20260508014150 58 141 1.0 1.0 0.00 1.25 1.25 99 1016.6
20260508013647 58 358 1.0 2.0 0.00 1.25 1.25 99 1016.3
20260508013143 58 92 3.0 3.0 0.00 1.25 1.25 99 1016.2
20260508012641 58 180 1.0 1.0 0.00 1.25 1.25 99 1016.3
20260508012138 58 161 0.0 1.0 0.00 1.25 1.25 99 1016.1
20260508011636 59 165 1.0 2.0 0.00 1.25 1.25 99 1016.0
20260508011133 59 77 1.0 1.0 0.00 1.25 1.25 99 1015.9
20260508010630 59 150 0.0 0.0 0.00 1.25 1.25 99 1016.1
20260508010128 59 173 0.0 0.0 0.00 1.25 1.25 99 1015.9
20260508005625 59 175 0.0 1.0 0.00 1.25 1.25 99 1015.8
20260508005121 59 184 1.0 1.0 0.00 1.25 1.25 99 1015.8
20260508004616 59 186 0.0 1.0 0.00 1.25 1.25 99 1015.5
20260508004114 59 73 0.0 2.0 0.00 1.25 1.25 99 1015.2
20260508003610 59 101 0.0 1.0 0.00 1.25 1.25 99 1014.9
20260508003108 59 24 2.0 3.0 0.00 1.25 1.25 99 1015.2
20260508002604 59 143 0.0 0.0 0.00 1.25 1.25 99 1015.0
20260508002102 59 163 0.0 0.0 0.00 1.25 1.25 99 1015.3
20260508001557 59 151 1.0 2.0 0.00 1.25 1.25 99 1014.8
20260508001053 59 166 0.0 1.0 0.00 1.25 1.25 99 1014.7
20260508000549 59 134 1.0 3.0 0.00 1.25 1.25 99 1014.5
20260508000047 59 32 2.0 3.0 0.00 1.25 1.25 99 1014.4
20260507235543 59 218 2.0 2.0 0.00 1.25 1.25 99 1014.4
20260507235041 60 44 1.0 2.0 0.00 1.25 1.25 99 1014.3
20260507234537 60 65 1.0 3.0 0.00 1.25 1.25 99 1013.8
20260507234033 60 99 1.0 6.0 0.00 1.25 1.25 99 1013.8
20260507233530 60 55 3.0 7.0 0.00 1.25 1.25 99 1013.5
20260507233029 60 86 1.0 2.0 0.00 1.25 1.25 99 1013.7
20260507232525 60 56 1.0 2.0 0.00 1.25 1.25 99 1013.6
20260507232022 60 120 1.0 3.0 0.00 1.25 1.25 99 1013.8
20260507231519 60 109 2.0 2.0 0.00 1.25 1.25 99 1013.7
20260507231016 61 155 0.0 6.0 0.00 1.25 1.25 99 1013.6
20260507230513 61 164 1.0 3.0 0.00 1.25 1.25 99 1013.7
20260507230009 61 159 0.0 2.0 0.00 1.25 1.25 99 1013.4
20260507225504 61 61 3.0 5.0 0.07 1.25 1.25 99 1013.3
20260507225001 61 332 1.0 5.0 0.19 1.25 1.25 99 1013.1
20260507224456 62 64 7.0 10.0 0.47 1.24 1.24 99 1012.8
20260507223953 62 178 1.0 5.0 0.42 1.22 1.22 99 1012.9
20260507223449 63 356 6.0 8.0 0.07 1.16 1.16 99 1012.3
20260507222947 63 43 3.0 7.0 0.00 1.15 1.15 97 1012.8
20260507222443 64 103 1.0 5.0 0.00 1.15 1.15 97 1012.8
20260507221940 64 76 2.0 6.0 0.00 1.15 1.15 96 1012.6
20260507221437 64 334 4.0 7.0 0.00 1.15 1.15 96 1012.2
20260507220933 64 13 5.0 7.0 0.00 1.15 1.15 95 1012.5
20260507220431 64 85 3.0 9.0 0.00 1.15 1.15 95 1012.3
20260507215927 65 62 4.0 7.0 0.00 1.15 1.15 94 1012.3
20260507215424 65 345 4.0 9.0 0.00 1.15 1.15 93 1012.5
20260507214921 65 205 1.0 7.0 0.00 1.15 1.15 93 1012.4
20260507214419 66 17 3.0 13.0 0.00 1.15 1.15 91 1011.7
20260507213914 68 63 5.0 10.0 0.00 1.15 1.15 89 1011.6
20260507213411 70 326 6.0 10.0 0.00 1.15 1.15 85 1011.6
20260507212908 73 154 1.0 6.0 0.00 1.15 1.15 81 1011.1
20260507212404 78 107 2.0 6.0 0.00 1.15 1.15 75 1010.5
20260507211900 80 315 7.0 9.0 0.00 1.15 1.15 68 1010.5
20260507211357 80 259 1.0 2.0 0.00 1.15 1.15 68 1010.5
20260507210854 78 153 1.0 5.0 0.00 1.15 1.15 72 1010.6
20260507210351 77 307 2.0 7.0 0.00 1.15 1.15 73 1010.6
20260507205847 79 201 1.0 2.0 0.00 1.15 1.15 71 1010.1
20260507205344 80 214 1.0 5.0 0.00 1.15 1.15 69 1010.0
20260507204841 80 187 2.0 5.0 0.00 1.15 1.15 69 1010.2
20260507204337 79 261 1.0 7.0 0.00 1.15 1.15 71 1010.4
20260507203835 79 219 4.0 6.0 0.00 1.15 1.15 70 1010.5
20260507203333 80 208 4.0 5.0 0.00 1.15 1.15 69 1010.6
20260507202829 80 209 2.0 5.0 0.00 1.15 1.15 71 1010.8
20260507202325 80 196 1.0 3.0 0.00 1.15 1.15 66 1010.4
20260507201821 80 186 0.0 2.0 0.00 1.15 1.15 68 1010.6
20260507201317 79 306 3.0 5.0 0.00 1.15 1.15 69 1010.8
20260507200813 80 192 1.0 7.0 0.00 1.15 1.15 68 1010.8
20260507200309 80 310 3.0 8.0 0.00 1.15 1.15 68 1010.8
20260507195805 81 228 4.0 5.0 0.00 1.15 1.15 68 1010.7
20260507195305 80 192 3.0 7.0 0.00 1.15 1.15 69 1011.0
20260507194801 82 268 2.0 5.0 0.00 1.15 1.15 68 1011.1
20260507194256 80 182 2.0 2.0 0.00 1.15 1.15 68 1011.1
20260507193753 80 204 3.0 6.0 0.00 1.15 1.15 71 1011.1
20260507193250 79 31 1.0 6.0 0.00 1.15 1.15 75 1011.1
20260507192746 79 220 5.0 6.0 0.00 1.15 1.15 71 1011.3
20260507192243 79 227 3.0 5.0 0.00 1.15 1.15 74 1011.3
20260507191739 78 10 1.0 5.0 0.00 1.15 1.15 73 1011.5
20260507191236 79 272 5.0 6.0 0.00 1.15 1.15 73 1011.5
20260507190732 78 227 2.0 5.0 0.00 1.15 1.15 74 1011.5
20260507190231 78 159 1.0 2.0 0.00 1.15 1.15 74 1011.7
20260507185730 77 94 2.0 5.0 0.00 1.15 1.15 74 1011.8
20260507185226 77 300 3.0 5.0 0.00 1.15 1.15 76 1011.7
20260507184724 77 331 4.0 8.0 0.00 1.15 1.15 73 1011.8
20260507184222 75 310 3.0 5.0 0.00 1.15 1.15 77 1011.9
20260507183718 75 178 2.0 6.0 0.00 1.15 1.15 76 1011.9
20260507183215 75 94 3.0 6.0 0.00 1.15 1.15 80 1011.9
20260507182712 76 198 3.0 5.0 0.00 1.15 1.15 79 1011.7
20260507182207 75 254 4.0 7.0 0.00 1.15 1.15 80 1011.9
20260507181704 75 284 2.0 5.0 0.00 1.15 1.15 81 1011.9
20260507181201 75 321 2.0 3.0 0.00 1.15 1.15 82 1012.0
20260507180656 75 200 5.0 6.0 0.00 1.15 1.15 82 1011.9
20260507180154 75 252 4.0 5.0 0.00 1.15 1.15 83 1011.9
20260507175649 74 199 1.0 3.0 0.00 1.15 1.15 85 1012.2
20260507175147 74 270 2.0 5.0 0.00 1.15 1.15 88 1012.2
20260507174644 73 221 2.0 6.0 0.00 1.15 1.15 86 1012.3
20260507174142 73 161 2.0 3.0 0.00 1.15 1.15 87 1012.5
20260507173639 72 196 1.0 6.0 0.00 1.15 1.15 94 1012.7
20260507173136 71 195 1.0 2.0 0.00 1.15 1.15 93 1012.8
20260507172632 70 150 2.0 7.0 0.00 1.15 1.15 94 1013.0
20260507172130 71 133 1.0 3.0 0.00 1.15 1.15 98 1012.8
20260507171630 69 290 2.0 6.0 0.00 1.15 1.15 99 1012.9
20260507171127 68 108 1.0 1.0 0.00 1.15 1.15 99 1012.4
20260507170624 68 192 1.0 2.0 0.00 1.15 1.15 99 1012.6
20260507170121 68 154 0.0 1.0 0.00 1.15 1.15 99 1012.6
20260507165617 67 209 3.0 3.0 0.00 1.15 1.15 99 1012.8
20260507165113 67 262 2.0 5.0 0.00 1.15 1.15 99 1013.0
20260507164609 67 175 1.0 2.0 0.00 1.15 1.15 99 1013.0
20260507164106 67 206 2.0 3.0 0.00 1.15 1.15 99 1012.7
20260507163604 68 174 0.0 2.0 0.00 1.15 1.15 99 1012.7
20260507163102 67 200 2.0 3.0 0.00 1.15 1.15 99 1013.0
20260507162556 67 158 0.0 5.0 0.00 1.15 1.15 99 1013.0
20260507162053 67 261 1.0 3.0 0.00 1.15 1.15 99 1013.0
20260507161549 66 199 1.0 2.0 0.00 1.15 1.15 99 1013.2
20260507161046 67 295 1.0 2.0 0.00 1.15 1.15 99 1013.2
20260507160543 66 327 2.0 5.0 0.00 1.15 1.15 99 1013.4
20260507160039 67 247 3.0 3.0 0.00 1.15 1.15 99 1013.5
20260507155534 67 203 2.0 3.0 0.00 1.15 1.15 99 1013.4
20260507155032 67 163 2.0 3.0 0.00 1.15 1.15 99 1013.0
20260507154528 66 142 0.0 1.0 0.00 1.15 1.15 99 1012.9
20260507154026 67 10 3.0 5.0 0.05 1.15 1.15 99 1012.9
20260507153522 67 212 1.0 2.0 0.05 1.15 1.15 99 1012.7
20260507153018 68 240 2.0 2.0 0.00 1.14 1.14 99 1012.3
20260507152514 67 192 0.0 1.0 0.00 1.14 1.14 99 1012.0
20260507152011 67 66 0.0 1.0 0.00 1.14 1.14 99 1012.0
20260507151507 66 111 1.0 2.0 0.00 1.14 1.14 99 1012.0
20260507151004 67 76 1.0 2.0 0.00 1.14 1.14 99 1012.0
20260507150501 66 200 1.0 1.0 0.00 1.14 1.14 99 1012.3
20260507145957 66 164 0.0 2.0 0.00 1.14 1.14 99 1012.6
20260507145453 66 191 1.0 2.0 0.00 1.14 1.14 99 1012.9
20260507144950 66 175 0.0 1.0 0.07 1.14 1.14 99 1013.2
20260507144447 66 166 0.0 0.0 0.07 1.14 1.14 99 1013.1
20260507143944 65 190 1.0 2.0 0.05 1.13 1.13 99 1013.8
20260507143442 65 199 1.0 1.0 0.05 1.13 1.13 99 1014.0
20260507142938 65 179 0.0 1.0 0.07 1.12 1.12 99 1013.9
20260507142434 65 173 0.0 1.0 0.00 1.11 1.11 99 1014.0
20260507141931 65 186 0.0 1.0 0.00 1.11 1.11 99 1014.1
20260507141427 65 164 0.0 2.0 0.00 1.11 1.11 99 1014.0
20260507140924 65 188 1.0 3.0 0.00 1.11 1.11 99 1014.3
20260507140420 65 220 1.0 2.0 0.00 1.11 1.11 99 1013.9
20260507135919 65 184 1.0 2.0 0.00 1.11 1.11 99 1013.2